Regional Weather Roundup
Issued by NWS Wakefield, VA

Home | Current Version | Previous Version | Graphics & Text | Print | Product List | Glossary On
Versions: 1 2 3 4 5 6 7 8 9 10 11 12 13 14 15 16 17 18 19 20 21 22 23 24 25 26 27 28 29 30 31 32 33 34 35 36 37 38 39 40 41 42 43 44 45 46 47 48 49 50
000
ASUS41 KAKQ 220210
RWRAKQ

REGIONAL WEATHER ROUNDUP
NATIONAL WEATHER SERVICE WAKEFIELD VA
1000 PM EDT SUN SEP 21 2014

Note: "fair" indicates few or no clouds below 12,000 feet with no
significant weather and/or obstructions to visibility. * = Denotes
station may not report precipitation (e.g., rain,snow,etc.),
thunder or fog.

VAZ042-051-052>054-056-220300-
NORTHERN VIRGINIA

CITY           SKY/WX    TMP DP  RH WIND       PRES   REMARKS
WASH NATIONAL  MOCLDY    79  60  52 NW6       29.70R
DULLES         MOCLDY    73  59  61 W5        29.72R
FORT BELVOIR   PTCLDY    73  65  75 NW3       29.70R
QUANTICO       PTCLDY    75  65  70 NW8       29.71R
FREDERICKSBRG* CLEAR     78  66  67 SW8       29.70R
STAFFORD*      CLEAR     74  66  76 CALM      29.76R
WARRENTON      PTCLDY    68  68 100 CALM      29.72R
CULPEPER*      PTCLDY    73  64  73 CALM      29.73R
MANASSAS*      CLOUDY    73  63  68 NW7       29.71S
LEESBURG*      CLOUDY    77  63  61 NW10G23   29.72R
WINCHESTER     MOCLDY    73  52  46 W15G26    29.76R
FRONT ROYAL*   CLOUDY    75  55  50 NW15      29.75R
LURAY*         LGT RAIN  77  54  44 NW23G31   29.77R
$$

VAZ048-049-060>072-079>083-220300-
CENTRAL AND SOUTH CENTRAL VIRGINIA...AND NORTH CENTRAL NORTH CAROLINA

CITY           SKY/WX    TMP DP  RH WIND       PRES   REMARKS
RICHMOND       PTCLDY    79  65  62 SW13      29.74R
CHESTERFIELD*  FAIR     N/A N/A N/A SW7       29.76R
PETERSBURG*    FAIR      74  64  70 SW8       29.77R
HANOVER        CLEAR     79  66  64 SW10      29.75R
TAPPAHANNOCK*  CLEAR     74  63  66 S6        29.72R
CHARLOTTSVILLE CLOUDY    76  61  59 VRB3      29.76R
ORANGE*        PTCLDY    75  61  60 SW10      29.75R
LOUISA*        CLEAR     75  64  69 W9        29.73R
FARMVILLE*     CLEAR     77  63  61 SW8       29.76R
CREWE*         CLEAR     77  63  61 W7        29.78R
FORT PICKETT*  PTCLDY    74  66  75 SW9       29.78S
LUNENBURG*     MOCLDY    74  67  78 CALM      29.79S
SOUTH HILL*    PTCLDY    73  66  78 SW7       29.85S
LAWRENCEVILLE* PTCLDY    72  67  85 SW3       29.79S
ROANOKE RAPIDS CLEAR     72  66  83 SW7       29.81R
RALEIGH        MOCLDY    75  64  68 SW9       29.85R
$$

VAZ088>098-220300-
SOUTHEAST VIRGINIA

CITY           SKY/WX    TMP DP  RH WIND       PRES   REMARKS
NORFOLK        CLEAR     75  64  68 SW14      29.76S
VIRGINIA BEACH PTCLDY    74  64  71 SW13      29.77R
NORFOLK NAVAL  CLEAR     78  66  66 S8G18     29.78R
WEST POINT*    CLEAR     78  65  64 SW6       29.74S
NEWPORT NEWS   CLEAR     79  67  66 SW12      29.75S
LANGLEY AFB    CLEAR     77  67  70 SW12      29.75R
FORT EUSTIS    PTCLDY    76  67  76 SW6       29.74R
WILLIAMSBURG*  CLEAR     79  68  69 SW5       29.76R
HR EXEC AP*    CLEAR     73  64  73 SW10G17   29.79S
FRANKLIN*      CLEAR     73  64  73 SW8       29.79R
WAKEFIELD      PTCLDY    75  66  73 SW7       29.77R
$$

VAZ020-022-025-037-045-220300-
WEST CENTRAL AND SOUTHWEST VIRGINIA

CITY           SKY/WX    TMP DP  RH WIND       PRES   REMARKS
STAUNTON*      PTCLDY    69  59  69 W7        29.83R
HOT SPRINGS VA MOCLDY    58  38  47 NW13G25   29.95R
LYNCHBURG      PTCLDY    71  64  78 SW6       29.83R
DANVILLE       PTCLDY    73  65  75 SW8       29.83S
SOUTH BOSTON*  NOT AVBL
MARTINSVILLE   PTCLDY    66  66 100 CALM      29.88R
ROANOKE        CLOUDY    69  62  78 W9        29.88R
BLACKSBURG     CLOUDY    66  66 100 W5        29.93R
DUBLIN*        MOCLDY    68  62  80 W7        29.94R
MARION*        CLOUDY    67  60  78 W15G21    29.97R
HILLSVILLE*    LGT RAIN  65  62  90 SW8       29.96R
RICHLANDS*     CLOUDY    66  64  90 NW8       30.00R
WISE*          PTCLDY    63  48  59 NW10      30.04R
ABINGDON*      CLOUDY    68  65  88 NW9       29.96R
$$

MDZ021>025-VAZ099-100-220300-
SOUTHERN MARYLAND AND THE DELMARVA PENINSULA

CITY           SKY/WX    TMP DP  RH WIND       PRES   REMARKS
PATUXENT RIVER PTCLDY    75  64  68 SW10      29.68S
BAY BRIDGE APT RAIN      72  68  88 S8G20     29.68R
LEONARDTOWN    CLOUDY    73  63  68 S7        29.71R
DOVER          PTCLDY    71  64  78 S9        29.65F
GEORGETOWN     MOCLDY    70  63  78 S12       29.70S
EASTON         NOT AVBL
CAMBRIDGE      PTCLDY    72  66  83 S5        29.68S
SALISBURY      MOCLDY    72  66  81 S6        29.70S
OCEAN CITY     CLEAR     72  64  76 SW9       29.71R
WALLOPS ISLAND CLEAR     73  65  75 SW10      29.72F
ACCOMACK*      CLEAR     70  63  78 SW7       29.73S
$$

NCZ012>017-030>032-220300-
EASTERN NORTH CAROLINA

CITY           SKY/WX    TMP DP  RH WIND       PRES   REMARKS
ELIZABETH CITY CLEAR     73  66  78 SW10      29.80S
AHOSKIE*       CLEAR     72  65  79 CALM      29.81S
EDENTON*       CLEAR     74  67  78 SW8       29.82S
CURRITUCK*     CLEAR     73  64  74 SW6       29.81R
KILL DEVIL HLS CLEAR     73  67  80 SW7       29.81S
MANTEO         CLEAR     73  67  81 SW9       29.83R
CAPE HATTERAS  CLEAR     74  70  87 W12       29.86R
TARBORO*       CLEAR     75  66  72 SW6       29.83S
GOLDSBORO      CLEAR     75  70  82 CALM      29.84S
WASHINGTON     CLEAR     74  65  72 SW6       29.85R
GREENVILLE     CLEAR     73  66  78 SW9       29.87R
NEW BERN       CLEAR     74  64  71 SW8       29.88R
WILMINGTON     CLEAR     76  68  76 SW9       29.91R
$$

VAZ048-220300-
ELSEWHERE

CITY           SKY/WX    TMP DP  RH WIND       PRES   REMARKS
HARRISBURG PA  MOCLDY    71  61  70 NW7       29.67R
BALTIMORE      PTCLDY    72  64  76 SW6       29.68R
ANNAPOLIS      MOCLDY    72  66  81 NW12G20   29.68R
ANDREWS AFB    MOCLDY    75  63  66 W8        29.70R
WILMINGTON DE  PTCLDY    71  65  81 CALM      29.66S
PHILADELPHIA   PTCLDY    72  65  78 S8        29.66R
WILDWOOD NJ*   PTCLDY    70  64  83 SW9       29.69S
ATLANTIC CITY  CLEAR     69  67  93 SW5       29.67S
HENDERSON NC   MOCLDY    74  63  68 SW7       29.83R
GREENSBORO     MOCLDY    70  68  93 SW7       29.87S
ROCKY MOUNT    CLEAR     75  65  70 SW7       29.83S
FAYETTEVILLE   CLEAR     75  65  70 SW9       29.87R
CHARLOTTE      PTCLDY    75  64  68 W3        29.90R
$$

VAZ100-220300-
MARINE

STATION/POSITION TIME  TEMP    WIND        PRES    WAVE   SWELL
                       AIR SEA DIR/SP/G            HT/PER HT/PER
                 (UTC) (F)     (DEG/KT/KT) (MB)    (FT/S) (FT/S)
44066 TX TWR #4  0200   70 70  290/  8/ 10 1003.3R   4/ 7   3/ 7
CAPE MAY NJ      0200   72 75  210/  6/  9 1004.7S
LEWES DE         0200   71 72  220/  4/  6 1005.0R
15NM E FENWICK I 0200   72 72              1005.4F   4/ 8
OCEAN-CITY-INLET 0200   72 72  230/  8/ 10 1005.6R
WACHAPREAGUE VA  0200   75 75  230/  7/ 10 1006.7S
THOMAS POINT MD  0200   77 74  220/  8/ 10 1006.0R
GOOSES REEF MD   0200   76     210/ 14/ 16 1005.2F
COVE POINT MD    0200   76     210/ 12/ 15 1005.0S
SOLOMONS ISLAND  0200      76                N/A
BISHOPS HEAD MD  0200   76 74  190/ 12/ 14 1005.0F
PINEY POINT MD   0200          240/  9/ 13   N/A
POTOMAC MD       0200   76     220/ 16/ 17 1005.1S
CAMBRIDGE MD     0200   73 74  180/  5/  9 1004.7S
LEWISETTA VA     0200   75 75  220/  9/ 11 1005.1S
RAPPAHANNOCK LGT 0200          200/ 18/ 19 1007.0S
STINGRAY PT      0200   77     220/ 14/ 16   N/A
YORK RVR RNG VA  0200   78     230/ 13/ 15 1006.6S
YORKTOWN VA      0200   78 76  230/  9/ 12 1006.7S
JAMESTOWN VA     0200   75     230/ 10/ 14   N/A
DOMINION TERM VA 0200   76     220/ 14/ 16 1007.5S
KIPTOPEKE VA     0200      79  210/ 12/ 14   N/A
CHES BAY BRIDGE  0200   77 75  200/ 16/ 18 1007.0S
CAPE HENRY VA    0200   75     210/  9/ 12 1006.6F
CHESAPEAKE LGHT  0100   77     220/ 17/ 20 1008.1R
WILLOUBY STN VA  0200   77     230/ 16/ 18 1006.2R
S CRANEY ISL VA  0200          190/ 11/ 16 1007.5S
CAPE HENRY BUOY  0200      75                N/A     3/ 8
1ST LANDING BUOY 0200   77     220/ 14/ 16 1007.3F
CAPE CHARLES BUO 0200      74                N/A     3/ 8   3/ 8
OFFSHORE WE BUOY 0200      74                N/A     4/ 8   3/ 8
64NM E OF VA BCH 0200   76 77  240/ 16/ 19 1007.9R   5/ 8   3/ 8
DUCK PIER NC     0200   77 74  220/ 13/ 17 1008.6F
44100 DUCK FRF   0200      74                N/A     4/ 8   2/11
44056 DUCK FRF   0200                        N/A     3/ 8
OREGON INLET NC  0200   75 76  220/ 13/ 16 1009.9S
DIAMOND SHLS NC  0200   80     240/ 19/ 23 1010.7R   6/10   5/10
CAPE LOOKOUT NC  0100   78     230/  9/ 12 1011.6R
$$


USA.gov is the U.S. government's official web portal to all federal, state and local government web resources and services.